Theta_e
320 321 325 324 337 336 341 346 347 344 345 348 351 351 352 347 345 344 342 341 341 340 340 340 342 343 343 343 344 344 344 345 346 349 350 350 351 351 350 348 349 348 348 349
317 319 320 323 326 330 339 340 343 344 345 344 348 347 344 350 349 344 343 342 341 341 340 339 340 340 342 343 343 343 344 345 347 350 349 349 350 349 349 348 346 349 348 350
318 319 321 323 327 341 341 339 341 342 343 341 343 343 348 351 349 345 343 342 341 341 340 338 337 338 341 342 343 343 345 346 347 349 348 348 349 350 349 346 346 348 350 352
317 318 320 320 320 328 331 336 341 342 341 343 340 345 353 351 351 346 344 343 342 341 340 339 338 338 341 342 343 344 345 346 348 348 347 349 350 350 350 348 345 342 350 352
318 320 320 320 320 330 328 334 341 342 341 329 329 343 347 347 352 351 345 343 343 342 342 340 339 340 342 342 343 344 346 347 348 348 347 350 350 350 348 350 348 347 349 352
318 317 319 318 320 325 323 321 317 320 321 324 323 325 323 348 351 350 347 345 343 342 341 340 340 340 343 343 344 345 347 348 348 348 348 349 350 349 349 351 349 349 350 352
316 318 317 319 322 320 315 313 316 319 320 321 320 322 321 323 337 347 347 346 343 342 341 340 340 340 345 345 345 346 347 348 349 349 348 349 350 350 350 350 349 350 351 351
320 323 324 325 324 324 319 314 314 319 317 317 315 320 325 333 336 340 346 344 341 342 340 340 340 341 346 347 347 347 348 348 349 349 349 349 350 351 351 349 349 351 349 344
323 325 323 325 325 319 318 317 313 311 311 315 315 317 318 324 339 341 341 342 343 341 339 340 341 343 346 348 348 349 348 348 349 349 349 349 351 352 348 349 350 351 351 343
326 326 325 324 323 323 321 315 316 310 317 318 315 319 320 324 326 335 340 340 340 340 341 340 343 343 346 348 349 350 350 348 348 349 349 349 352 353 351 350 353 352 349 346
323 323 325 322 323 325 322 322 316 312 310 313 315 326 318 321 324 327 336 337 336 340 341 342 343 343 345 348 349 350 352 351 351 351 352 354 354 354 353 352 353 352 350 349
323 318 322 325 321 319 324 324 318 322 326 311 312 316 318 323 330 333 335 338 345 346 338 341 343 343 344 348 349 349 349 352 352 352 352 353 355 354 354 353 352 352 352 350
324 318 317 319 319 321 321 320 321 316 316 323 323 324 322 338 346 340 338 350 350 356 349 339 341 341 343 346 348 350 350 350 352 353 353 353 353 356 354 355 353 352 352 350
324 315 319 321 322 320 322 319 320 319 320 320 321 323 326 345 349 348 347 344 340 346 354 355 353 346 346 346 348 348 351 352 351 353 354 354 354 355 356 355 355 354 352 351
316 322 320 318 319 320 319 319 319 323 322 324 322 321 339 348 346 343 336 337 338 339 340 342 352 355 355 350 349 350 349 353 353 354 356 356 355 355 357 357 356 355 352 353
309 314 316 317 316 317 320 318 318 320 321 320 320 332 340 344 342 337 336 336 335 334 334 332 334 346 354 358 359 353 351 352 354 355 356 357 358 357 356 358 356 357 355 354
312 309 310 313 313 317 317 316 320 320 327 327 333 336 343 344 343 338 335 335 334 334 334 331 332 328 334 348 356 358 356 354 355 357 357 358 359 359 358 358 356 354 353 351
308 308 309 311 315 318 315 315 318 326 344 340 339 342 345 339 338 337 335 335 335 335 335 334 334 336 343 349 354 353 355 356 357 358 359 359 360 359 359 358 356 353 352 350
308 309 312 314 314 314 318 319 325 327 343 335 339 339 342 337 337 341 338 335 334 331 331 335 348 351 350 349 350 351 355 357 357 360 360 359 360 360 358 356 354 352 349 347
306 307 313 313 316 317 318 324 328 331 343 334 339 338 338 338 345 342 338 339 336 333 341 351 350 350 349 348 349 355 356 356 357 360 360 359 359 359 357 355 354 352 350 346
321 319 313 313 318 319 322 323 326 334 332 332 335 336 336 338 336 337 338 342 342 345 352 351 349 348 348 347 348 352 355 356 358 360 360 359 358 357 356 354 351 349 346 342
321 324 324 320 324 329 323 323 329 325 328 330 327 331 333 331 334 335 336 330 331 335 351 350 348 346 346 346 346 348 353 356 359 360 360 359 357 355 352 353 348 345 342 339
322 318 320 320 323 321 322 322 321 324 323 323 323 322 324 330 331 330 329 328 328 329 340 345 347 346 346 347 346 345 348 352 354 356 353 356 354 354 340 343 343 339 336 336
320 318 320 319 319 322 323 320 318 317 317 317 318 318 321 323 323 323 321 318 318 320 324 330 340 342 342 341 347 347 345 349 351 350 347 349 352 348 349 347 339 337 337 336
319 318 317 317 316 317 320 319 318 318 317 316 315 317 317 317 315 317 318 317 316 317 318 320 325 333 339 339 343 346 348 346 349 350 349 348 348 344 340 339 338 338 337 335
317 318 318 320 316 316 317 318 318 317 316 315 314 314 314 315 314 314 314 314 315 316 317 317 318 319 321 325 331 339 345 347 346 348 348 348 346 340 337 337 336 336 334 335
Wind_Speed
3 4 4 9 7 7 5 4 7 8 7 4 9 7 13 15 14 17 17 16 17 19 22 31 30 32 30 30 32 36 35 33 28 28 24 21 22 20 16 12 12 10 11 7
6 4 8 5 6 7 4 7 8 8 4 2 9 15 13 14 19 24 21 19 20 18 16 20 27 31 31 33 37 36 36 36 34 32 29 25 24 19 15 16 13 10 11 9
5 8 1 4 3 4 4 8 7 6 5 3 3 8 1 1 7 18 21 24 21 22 19 14 18 30 31 30 37 39 38 38 38 34 29 20 18 13 14 15 20 13 12 12
5 4 3 2 5 7 6 11 16 10 3 4 4 5 7 3 5 14 18 21 20 20 17 14 16 24 32 35 39 39 38 40 38 36 33 30 22 18 19 21 21 16 13 14
8 3 3 3 7 7 11 2 9 11 4 4 3 2 7 1 9 12 17 20 20 20 19 17 16 29 33 33 37 40 40 39 38 39 36 32 25 22 17 18 18 16 16 18
5 2 4 6 5 8 1 3 8 5 4 1 6 4 6 5 12 11 8 15 17 18 18 16 23 23 25 27 32 36 38 40 39 41 37 33 29 24 18 19 21 21 19 19
6 5 5 2 4 2 6 7 3 3 3 5 1 3 10 5 7 14 20 15 12 17 17 13 15 16 23 27 30 34 37 36 39 40 39 36 33 27 24 22 24 22 22 21
3 7 6 7 2 4 4 7 6 4 3 5 0 3 6 6 9 11 2 9 10 9 12 15 18 22 27 30 31 30 35 35 38 39 40 37 33 30 28 25 25 25 24 24
3 4 6 1 3 1 2 1 3 7 3 1 4 7 9 12 10 5 8 7 8 10 10 16 16 23 27 31 36 37 36 36 40 42 41 39 36 33 31 28 25 25 23 23
1 4 1 6 6 7 6 3 3 4 2 3 5 2 4 12 18 7 2 7 6 9 11 12 16 22 28 31 34 37 38 41 44 43 41 41 39 36 33 28 26 26 23 21
3 3 8 2 3 3 6 6 5 5 3 4 0 4 7 9 14 12 3 7 6 9 11 15 17 24 27 27 29 35 36 35 34 36 38 37 39 39 36 31 29 28 25 24
2 5 2 7 1 5 3 2 4 5 4 2 4 5 8 13 8 10 9 9 9 7 3 6 13 25 26 28 30 34 36 32 38 41 38 40 40 39 39 36 33 31 30 28
0 3 4 10 7 4 5 5 3 4 3 1 4 5 5 13 14 10 10 12 10 10 11 5 9 6 5 4 10 18 31 38 35 33 33 33 34 37 40 40 37 35 33 31
7 3 6 5 7 3 5 5 3 4 3 3 5 5 8 10 9 10 9 9 8 10 11 10 10 7 14 15 15 22 24 25 30 32 34 34 35 37 39 40 41 38 37 34
4 1 5 6 6 3 4 5 5 1 4 4 6 7 5 2 5 5 5 4 6 9 10 8 7 6 6 16 12 24 31 31 30 28 32 39 39 36 32 37 43 42 40 37
3 3 1 5 4 1 4 7 5 3 4 6 5 4 3 1 1 0 2 1 4 4 2 3 4 3 5 8 10 11 26 29 31 32 36 35 34 35 37 37 38 42 40 39
2 4 3 5 5 5 5 5 4 2 1 2 4 5 4 3 5 5 4 3 1 5 7 7 6 3 2 2 4 8 11 30 37 36 36 35 29 34 37 39 38 39 40 40
6 5 2 3 4 1 7 5 4 3 2 4 4 1 3 3 3 4 5 5 5 6 7 6 4 10 18 18 18 19 17 20 33 36 37 34 31 35 36 38 40 38 40 42
6 6 2 2 3 5 7 4 3 4 1 1 5 5 5 4 4 3 4 3 6 6 8 9 16 18 19 21 23 24 24 23 30 34 35 37 39 38 40 40 39 40 38 39
7 5 4 3 4 6 5 8 3 4 1 2 2 5 7 4 2 4 3 4 5 6 5 7 11 12 16 22 25 27 27 19 27 33 36 33 36 40 39 41 40 42 43 44
4 3 4 2 4 6 6 9 4 3 5 5 5 6 6 6 6 5 4 4 4 6 6 5 3 5 11 17 21 19 20 12 14 22 22 28 32 34 32 29 31 36 38 32
3 1 3 1 3 5 5 4 4 5 3 2 4 4 7 7 6 5 7 6 5 5 8 4 4 5 6 11 16 18 18 23 13 17 22 28 30 23 16 19 19 31 28 27
2 6 3 7 5 5 4 2 2 3 1 3 2 3 5 2 4 5 5 6 5 4 4 6 8 9 11 12 13 15 15 16 15 11 10 25 23 27 16 17 29 20 19 15
4 2 2 4 3 4 3 2 2 3 2 3 4 6 2 3 3 4 5 5 5 8 7 6 8 9 12 13 14 14 15 13 11 11 9 14 21 18 27 32 33 25 30 26
5 3 3 5 9 7 5 4 3 4 5 6 5 3 5 6 7 5 5 5 5 8 9 9 12 13 16 17 18 18 15 13 11 11 13 13 15 17 22 28 29 26 29 31
5 6 4 8 9 5 7 6 6 8 8 9 9 8 8 6 8 5 3 4 6 10 13 16 15 16 22 23 23 21 18 13 12 12 14 17 13 13 17 18 18 22 20 23
Wind_Direction
20 83 216 221 198 220 200 210 229 268 172 138 193 222 229 203 205 187 194 204 199 211 216 210 212 208 206 208 209 214 209 211 205 196 191 202 208 203 212 215 222 243 229 226
17 233 232 221 221 235 211 226 235 277 132 251 186 227 232 193 208 203 189 198 207 216 215 213 212 214 204 202 210 211 212 212 208 203 202 210 210 211 217 224 229 226 214 214
169 247 53 183 212 177 238 208 224 213 333 303 121 310 213 2 192 209 197 199 201 208 213 206 198 202 202 194 200 205 207 210 206 205 204 203 204 203 208 204 221 220 214 217
229 279 228 315 265 170 246 210 242 242 112 253 88 267 290 176 221 207 197 202 202 205 214 206 193 191 190 196 201 203 200 206 206 206 207 207 205 203 215 218 222 222 217 213
254 267 297 245 233 155 232 167 208 232 208 62 292 100 272 273 222 222 208 205 202 202 203 201 197 192 193 186 192 199 200 202 204 208 209 211 214 216 214 214 218 208 217 217
248 239 195 224 251 199 282 120 32 44 86 86 234 153 282 204 226 227 202 213 198 197 203 199 198 192 188 187 183 189 194 201 205 206 207 212 214 217 211 210 208 208 209 207
342 300 285 230 351 354 75 57 343 347 12 216 32 64 239 292 245 218 213 203 178 193 196 184 182 178 180 183 186 186 192 195 205 207 207 213 215 214 212 207 205 209 210 211
103 347 5 327 282 257 225 154 149 213 212 252 57 248 262 280 281 230 323 153 165 180 192 187 185 180 181 181 183 189 191 195 202 207 210 213 215 216 216 214 214 216 218 215
111 292 312 187 280 26 350 277 167 101 8 43 290 311 321 347 333 111 119 131 184 185 183 191 187 183 184 182 184 189 193 199 203 209 211 214 217 218 215 215 218 221 225 220
273 357 261 294 22 8 81 196 23 14 132 276 316 283 258 321 316 314 145 190 201 198 189 181 186 187 185 190 186 191 196 198 207 209 211 215 217 219 220 217 218 219 221 220
106 79 300 20 80 321 352 11 44 112 105 152 314 280 228 276 283 280 240 285 247 188 186 185 184 191 187 183 185 191 193 197 201 206 209 211 216 218 219 218 217 218 220 215
317 132 284 251 356 326 5 68 114 104 288 80 135 276 293 329 353 61 37 31 33 21 358 208 191 179 177 181 185 194 194 198 204 207 207 210 215 218 221 219 220 218 220 220
115 48 5 344 4 1 35 342 81 102 78 231 110 267 347 3 26 18 55 26 11 43 45 80 122 125 93 220 208 206 196 204 205 204 206 209 210 212 218 220 219 220 220 221
79 102 147 178 226 231 312 320 65 97 82 220 223 279 312 6 11 19 43 0 351 35 65 65 61 84 128 164 188 212 218 228 211 204 205 208 212 214 215 217 219 218 218 218
76 173 194 228 232 219 256 276 334 4 203 176 253 210 276 0 314 351 9 353 33 48 47 51 65 74 89 127 165 211 221 216 213 214 209 212 213 213 213 216 219 217 217 217
21 267 263 271 262 359 255 285 294 250 233 243 208 240 234 137 230 196 140 109 62 37 53 79 103 45 70 84 33 256 224 218 212 211 218 215 207 206 211 215 215 216 214 211
163 150 90 274 345 334 333 251 191 254 284 227 176 234 173 204 204 199 186 191 224 307 321 342 349 121 87 198 229 282 286 223 210 212 219 219 201 195 205 210 210 209 207 206
154 121 123 255 4 295 241 258 230 152 98 63 46 51 168 269 273 282 262 255 241 201 205 238 287 338 347 342 333 326 305 266 221 215 208 211 204 203 203 202 204 200 201 203
183 130 157 163 200 282 312 353 38 203 193 324 173 215 213 203 319 322 238 242 277 305 326 338 0 3 357 355 340 329 315 293 223 217 214 205 204 203 199 198 195 196 194 196
73 73 127 136 185 233 239 292 320 142 323 272 174 215 194 139 139 259 224 218 260 264 291 352 354 350 350 351 350 341 322 288 223 215 215 213 208 207 202 199 193 193 198 198
359 28 179 194 232 285 264 291 316 193 235 187 195 213 172 194 204 209 208 233 218 215 206 217 259 329 339 346 354 342 337 312 249 234 224 223 215 211 208 199 190 193 197 191
183 137 234 132 194 273 330 3 94 222 302 309 319 284 237 229 218 198 207 198 174 222 223 241 292 301 337 345 349 358 350 337 316 250 229 225 213 201 179 204 212 200 187 185
260 184 206 174 219 233 295 95 331 193 121 348 282 304 348 245 236 230 244 241 240 249 269 275 276 312 331 335 343 345 345 343 322 284 205 219 199 196 224 202 224 176 161 164
265 165 206 42 285 205 359 244 332 25 355 304 320 299 245 189 233 251 260 271 275 275 271 284 282 297 307 319 316 319 328 333 331 297 254 219 223 189 190 204 203 177 170 187
208 154 175 262 283 283 247 213 250 291 283 286 287 245 278 281 269 237 220 244 275 292 301 309 316 311 295 303 299 300 306 314 304 295 280 231 221 199 181 189 190 197 195 195
193 228 207 255 227 197 242 236 250 241 246 251 255 273 254 231 236 265 280 309 326 334 341 342 335 324 317 319 298 285 284 285 289 285 279 268 244 191 183 179 191 216 231 208